sat.trackr.live / text

‹ back to catalog

STARLINK-5540

NORAD 56340 · 2023-058Z

PAYLOAD ACTIVE UNKNOWN

§ Identity

Operator
Country
US
Launch date
2023-04-27
Launch site
AFWTR
Launch vehicle
Mass (kg)
RCS (m²)

Purposes: comms

External: N2YO · Heavens-Above · Gunter

§ Orbital elements

Epoch: 2026-09-20T12:42:59.996448Z

Period
93.91 min
Inclination
97.2843°
Eccentricity
0.0002016
Mean motion
15.33441367 rev/d
Perigee alt
464.2 km
Apogee alt
466.9 km
Semi-major
6,843.7 km
B*
1.1871e-5
RAAN
260.3411°
Arg perigee
93.4195°
Mean anomaly
266.7278°
Rev number
18,764

§ Raw data

STARLINK-55401 56340U 23058Z   26263.52986107  .00000308  00000+0  11871-4 0  99952 56340  97.2843 260.3411 0002016  93.4195 266.7278 15.33441367187641

JSON: /api/v1/satellites/56340 · /tle

For live sub-satellite position, see the globe view (requires WebGL).

§ Visibility from observer

Set your observer location to see the next 7 days of passes ≥ 10°. The values pass through the URL so the page stays shareable.

No JS? Fill the form by hand. The geolocation button needs JavaScript.